Regional Weather Roundup
Issued by NWS

Home | Current Version | Previous Version | Text Only | Print | Product List | Glossary On
Versions: 1 2 3 4 5 6 7 8 9 10 11 12 13 14 15 16 17 18 19 20 21 22 23 24 25 26 27 28 29 30 31 32 33 34 35 36 37 38 39 40 41 42 43 44 45 46 47 48 49 50
923
ASUS44 KJAN 301603
RWRMS

MISSISSIPPI HOURLY WEATHER ROUNDUP
NATIONAL WEATHER SERVICE JACKSON MS
1100 AM CDT THU OCT 30 2014

NOTE: "FAIR: INDICATES FEW OR NO CLOUDS BELOW 12,000 FEET WITH NO
SIGNIFICANT WEATHER AND/OR OBSTRUCTIONS TO VISIBILITY.

MSZ001>002-007>008-010>013-018>021-025>028-034>036-301700-
NORTHWEST MISSISSIPPI

CITY           SKY/WX    TMP DP  RH WIND       PRES   REMARKS
CLARKSDALE     FAIR      63  50  63 CALM      30.18S
CLEVELAND      FAIR      63  50  62 CALM      30.17S
GREENWOOD      SUNNY     64  47  53 CALM      30.16F
GREENVILLE     SUNNY     65  49  56 CALM      30.16F
GRENADA        FAIR      61  45  55 MISG        N/A
OLIVE BRANCH   SUNNY     57  45  62 E5        30.17S
OXFORD         FAIR      59  39  47 CALM      30.17F
TUNICA         SUNNY     59  45  58 CALM      30.18S
$$

MSZ003>006-009-014>017-022>024-029>033-037>039-301700-
NORTHEAST MISSISSIPPI

CITY           SKY/WX    TMP DP  RH WIND       PRES   REMARKS
COLUMBUS AFB   SUNNY     62  41  46 VRB2      30.16F
CORINTH        FAIR      57  43  58 VRB5      30.17S
STARKVILLE     FAIR      61  46  59 CALM      30.16F
TUPELO         SUNNY     59  44  57 VRB3      30.16F
$$

MSZ040-058-301700-
CENTRAL MISSISSIPPI

CITY           SKY/WX    TMP DP  RH WIND       PRES   REMARKS
JACKSON INTL   SUNNY     67  38  34 E9        30.16F
JACKSON HAWKNS SUNNY     66  41  40 E9        30.16F
MERIDIAN KEY   SUNNY     66  39  37 NE8       30.16S
MERIDIAN NAS   SUNNY     65  40  39 N7        30.16F
RAYMOND        FAIR      64  59  82 SE6       30.17F
VICKSBURG      SUNNY     65  45  48 VRB5      30.17F
$$

MSZ059>079-301700-
SOUTH MISSISSIPPI

CITY           SKY/WX    TMP DP  RH WIND       PRES   REMARKS
BROOKHAVEN     FAIR      64  43  45 E5        30.18R
COLUMBIA         N/A     66  41  39 MISG      30.14S
HATTIESBURG    SUNNY     67  40  37 NE10      30.16S
MCCOMB         SUNNY     66  40  38 E8        30.15S
NATCHEZ        SUNNY     64  45  48 E7        30.17F
PINE BELT      SUNNY     64  41  42 E12       30.16F
$$

MSZ080>082-301700-
COASTAL MISSISSIPPI

CITY           SKY/WX    TMP DP  RH WIND       PRES   REMARKS
BILOXI         SUNNY     68  44  41 NE16      30.11S
PASCAGOULA     SUNNY     69  42  37 N14G20    30.11S
GULFPORT       SUNNY     69  44  40 NE10G21   30.11S
$$



USA.gov is the U.S. government's official web portal to all federal, state and local government web resources and services.